SCP
0 0 0 0 1 2 2 4 5 6 5 4 3 3 3 3 1 2 2 2 3 2 2 2 2 1 1 1 0 0 0 0 0 0 0 0 0 0 0 0 0 0 0
0 0 0 1 2 2 3 3 3 4 4 4 3 2 2 1 1 1 2 2 2 1 2 2 1 1 1 0 0 0 0 0 0 0 0 0 0 0 0 0 0 0 0
0 -0 0 2 2 1 1 1 1 2 3 2 2 3 1 2 1 2 2 2 2 2 2 1 1 1 0 0 0 0 0 0 0 0 0 0 0 0 0 0 0 0 0
0 0 0 2 1 1 0 1 1 1 1 2 2 2 1 1 1 1 2 3 2 1 1 1 0 0 0 0 0 0 0 0 0 0 -0 -0 0 0 0 0 0 0 0
0 0 0 1 1 1 0 1 1 1 1 2 1 1 1 1 1 1 2 1 1 1 1 0 0 0 0 0 0 0 0 0 -0 -0 -0 -0 0 0 0 0 0 0 0
0 0 1 0 0 0 0 0 0 1 1 1 1 1 1 2 2 1 1 1 1 0 0 0 0 0 0 0 -0 0 0 -0 0 0 -0 -0 0 0 -0 0 0 0 0
0 1 0 0 0 0 0 0 0 1 1 1 1 1 1 1 1 1 1 1 0 0 0 0 0 0 -0 -0 -0 -0 0 0 -0 -0 -0 -0 0 0 0 0 0 0 0
0 -0 0 0 -0 -0 -0 0 0 0 0 0 0 0 1 0 0 0 0 0 0 0 0 0 0 0 -0 -0 -0 0 -0 0 0 -0 -0 0 0 0 0 0 0 0 0
0 0 0 -0 -0 -0 0 0 0 0 0 0 0 0 0 0 0 0 0 0 0 0 0 -0 0 -0 0 0 0 0 0 -0 -0 -0 0 0 0 0 0 -0 -0 0 0
0 0 -0 -0 -0 -0 0 0 0 0 0 0 0 0 0 0 0 0 0 0 -0 0 -0 -0 -0 -0 -0 0 0 0 0 0 -0 0 0 0 0 0 -0 -0 0 0 0
0 0 -0 -0 -0 0 0 0 0 0 0 0 0 0 0 0 0 0 0 0 0 -0 -0 -0 -0 -0 -0 0 0 0 0 0 0 -0 0 0 0 -0 -0 -0 0 0 0
0 -0 -0 -0 -0 0 0 0 0 0 0 0 0 0 0 0 0 0 0 -0 -0 -0 0 -0 -0 -0 -0 -0 0 0 0 0 -0 -0 0 -0 0 0 0 0 -0 0 0
-0 -0 -0 -0 -0 -0 -0 0 0 0 0 0 0 0 0 0 0 -0 -0 0 0 -0 -0 -0 -0 -0 -0 -0 -0 -0 0 0 0 0 0 0 0 -0 0 0 0 0 0
-0 -0 -0 -0 -0 -0 -0 0 -0 -0 0 0 -0 0 -0 0 -0 -0 -0 0 -0 0 0 0 -0 -0 -0 0 0 0 0 0 0 0 0 0 0 0 0 0 0 0 -0
-0 -0 -0 -0 -0 -0 0 -0 -0 -0 0 -0 -0 -0 0 0 -0 -0 -0 -0 -0 -0 -0 -0 -0 -0 0 0 0 0 0 -0 0 0 0 0 0 0 0 0 0 0 0
-0 -0 -0 -0 -0 -0 -0 -0 -0 -0 -0 -0 -0 -0 0 -0 -0 -0 -0 0 -0 -0 -0 -0 -0 0 0 0 -0 -0 0 0 0 0 0 0 0 0 -0 0 0 0 0
-0 -0 -0 -0 -0 -0 -0 -0 -0 -0 -0 -0 -0 -0 -0 -0 -0 -0 -0 -0 -0 -0 -0 -0 0 -0 0 0 0 -0 -0 -0 0 0 0 0 0 0 0 -0 0 0 0
0 -0 -0 -0 -0 -0 -0 -0 -0 -0 -0 -0 -0 -0 -0 -0 -0 -0 -0 -0 -0 -0 -0 0 -0 0 0 0 0 -0 0 0 0 0 0 0 0 0 0 0 -0 0 0
0 0 -0 -0 -0 -0 -0 -0 -0 -0 -0 -0 -0 -0 -0 -0 0 -0 -0 -0 0 0 -0 0 -0 0 0 0 0 -0 0 -0 0 0 0 0 -0 -0 -0 0 0 0 0
0 0 -0 -0 -0 -0 -0 -0 -0 -0 -0 -0 -0 -0 -0 -0 0 0 -0 -0 -0 0 -0 -0 0 0 0 0 0 0 0 0 0 0 0 -0 0 -0 0 0 0 0 0
0 0 -0 -0 -0 -0 -0 -0 -0 -0 -0 -0 -0 -0 -0 -0 -0 0 0 0 -0 -0 -0 -0 -0 0 0 0 0 0 0 0 0 0 0 -0 0 0 0 0 0 0 0
0 0 -0 -0 -0 -0 -0 -0 -0 -0 -0 -0 -0 -0 -0 -0 -0 0 0 0 0 0 0 -0 0 0 0 0 0 0 0 -0 0 -0 -0 -0 -0 -0 0 0 -0 -0 -0
1 0 -0 -0 -0 -0 -0 -0 -0 -0 -0 -0 -0 -0 -0 -0 -0 -0 0 0 0 0 0 0 0 0 0 0 0 0 0 0 0 -0 -0 -0 0 -0 0 -0 -0 -0 -0
1 0 0 -0 -0 -0 -0 -0 -0 -0 -0 -0 -0 -0 -0 -0 -0 0 -0 0 0 0 0 0 0 0 0 -0 -0 -0 0 0 -0 0 0 0 0 0 -0 -0 -0 -0 -0
0 1 0 -0 -0 -0 -0 -0 -0 -0 -0 -0 -0 -0 -0 -0 -0 0 -0 0 0 0 0 0 0 0 0 0 0 0 0 0 0 0 0 0 0 0 -0 -0 -0 -0 -0
1 1 0 0 -0 -0 -0 -0 -0 -0 -0 -0 -0 -0 -0 0 0 0 0 -0 0 -0 0 0 0 0 0 0 0 0 0 0 0 0 0 0 0 0 -0 -0 -0 -0 -0
Wind_Speed_500mb
64 47 44 47 63 46 44 48 47 51 59 49 41 47 44 43 41 36 32 32 33 26 35 36 44 43 38 32 34 28 25 29 28 25 24 27 25 32 30 27 19 33 26
63 53 45 44 46 41 37 40 44 53 54 47 42 40 43 29 34 32 31 34 34 29 33 40 42 36 32 33 33 28 26 28 30 30 24 14 28 40 39 31 32 36 39
60 73 64 44 33 31 28 28 36 47 52 48 43 37 34 29 31 30 27 33 33 31 33 36 34 29 31 31 23 20 26 29 31 34 25 13 14 36 39 35 36 42 35
64 70 69 36 34 25 20 31 43 43 46 39 40 42 40 33 26 22 22 29 24 22 30 30 29 26 21 13 22 23 26 29 31 30 43 28 13 18 23 39 37 27 34
46 50 32 38 29 28 29 37 41 44 42 46 39 41 31 24 15 15 16 17 26 31 32 29 22 14 12 17 20 24 25 26 28 31 30 34 18 19 21 26 42 30 35
49 45 41 41 40 33 36 40 44 43 46 45 32 28 26 19 16 18 20 26 27 24 21 14 8 11 14 17 18 14 12 13 17 20 27 33 19 29 24 24 34 34 30
34 52 50 46 43 43 44 45 51 45 46 36 33 24 24 25 18 14 18 17 16 11 11 15 12 11 9 8 7 8 12 8 12 16 20 21 16 6 17 21 36 39 30
47 52 45 46 47 48 47 46 47 40 39 33 25 20 15 9 11 11 8 11 6 5 12 8 8 2 2 7 3 6 6 5 9 16 21 17 13 4 10 24 28 41 30
39 44 44 46 51 50 49 48 41 37 36 31 26 20 16 7 7 7 8 4 5 10 12 9 6 9 10 9 6 8 9 6 7 6 10 13 13 8 11 26 41 43 42
43 47 51 52 51 49 48 42 39 38 35 29 23 18 14 10 9 6 4 9 15 17 5 8 8 9 10 14 13 10 11 9 8 5 5 11 8 6 12 29 45 44 49
48 52 52 53 51 49 44 44 39 36 33 27 22 17 9 9 7 6 16 13 20 7 8 8 9 8 6 5 7 11 10 9 5 7 5 7 9 8 18 37 39 38 42
52 53 55 54 52 48 46 42 38 35 31 26 21 14 10 14 14 8 16 9 22 13 13 7 9 6 1 2 8 5 7 6 11 9 9 5 16 16 29 35 35 38 27
56 56 56 54 51 49 44 41 37 33 29 27 23 14 16 11 7 15 18 22 18 16 12 7 9 7 7 5 10 8 6 6 6 7 9 15 17 23 29 32 29 29 35
57 58 56 53 50 47 43 40 36 32 29 28 23 13 11 5 11 12 26 23 16 16 15 9 10 8 8 7 8 8 15 9 6 4 10 13 11 17 18 22 27 31 48
55 57 54 53 50 46 43 38 37 33 29 28 21 12 12 12 11 12 25 27 20 16 19 15 7 9 10 9 7 10 12 9 9 12 11 15 14 13 22 31 33 35 77
53 54 51 50 50 46 42 40 38 33 29 27 22 10 20 17 15 13 24 28 26 23 12 9 9 18 5 13 16 17 16 12 13 15 17 20 19 22 28 31 31 44 96
52 53 51 51 49 45 43 42 38 34 30 28 23 16 27 20 12 15 20 24 27 29 20 16 11 12 14 21 23 20 16 16 13 21 24 25 25 28 34 37 40 69 88
49 50 49 49 48 43 44 40 38 35 32 30 22 20 27 19 19 17 20 17 21 21 23 20 17 24 21 22 24 21 18 16 23 27 22 27 29 31 35 50 57 78 83
48 48 48 50 46 46 46 43 40 36 32 30 23 34 24 22 20 18 20 19 18 19 22 26 16 23 20 20 23 23 19 24 27 26 24 29 30 27 36 53 67 75 84
49 47 49 50 49 48 48 45 43 39 35 30 31 32 29 20 23 13 17 17 12 12 22 30 22 23 17 18 24 24 20 27 29 20 17 25 29 30 35 44 65 69 73
51 45 49 50 52 51 50 46 43 41 36 32 32 27 24 28 21 14 21 20 17 17 23 23 23 18 17 17 24 26 23 24 23 29 36 31 33 35 39 45 52 59 62
27 49 51 52 54 54 52 46 45 41 39 36 35 38 36 26 20 15 26 24 18 23 20 23 21 17 16 19 29 30 31 34 31 42 46 44 38 35 37 44 61 58 68
9 44 50 54 54 56 54 48 47 44 43 41 40 39 34 31 25 20 22 22 22 17 20 23 19 18 18 26 33 38 43 38 30 49 49 42 37 32 33 48 53 62 66
17 35 51 54 55 57 54 49 48 46 45 47 46 39 41 32 21 31 20 17 22 25 21 24 23 20 19 34 37 51 44 42 34 42 39 37 36 33 42 52 57 55 60
18 18 50 54 55 57 56 54 51 50 49 51 50 46 43 39 31 29 29 23 20 22 29 21 21 26 22 33 44 52 48 41 45 43 42 41 38 50 56 55 48 43 35
16 23 35 55 53 56 57 58 55 54 55 56 53 50 45 44 38 38 35 28 25 18 21 30 17 16 17 31 46 40 39 42 44 42 46 39 40 50 59 51 48 43 44
Wind_Direction_500mb
272 253 255 273 279 257 253 244 229 209 212 214 196 199 200 203 204 217 222 227 234 244 261 265 267 271 269 256 266 266 249 235 237 246 248 251 223 209 202 222 234 221 226
285 293 256 270 252 254 255 243 218 208 206 199 191 199 195 216 205 220 227 235 246 255 257 265 272 270 262 263 263 259 240 230 222 231 244 233 218 215 206 207 222 220 207
277 281 281 265 233 243 246 227 196 188 188 191 180 189 191 204 199 205 206 231 236 261 264 270 273 269 265 258 256 242 229 232 244 237 216 194 212 208 200 204 215 222 231
250 253 254 208 214 220 210 185 185 192 181 175 179 184 189 195 216 233 228 226 258 277 280 275 284 272 264 228 248 251 242 247 243 242 224 210 182 188 193 206 210 215 194
259 258 231 190 178 181 174 178 185 164 166 173 192 185 182 206 196 209 246 246 258 263 276 281 276 265 238 237 244 253 254 243 237 232 224 221 238 204 225 204 203 206 197
246 237 173 156 157 157 166 172 159 153 178 169 182 179 200 178 178 211 235 253 274 274 273 248 270 241 249 262 260 247 249 231 226 235 222 223 202 209 209 201 195 184 175
231 136 145 149 150 156 163 163 154 173 170 168 186 178 193 205 206 221 249 276 282 276 239 201 239 258 255 252 219 200 207 228 239 225 222 209 206 238 183 196 179 161 155
145 136 145 150 152 160 162 158 164 167 164 175 170 174 184 151 198 220 216 269 281 231 150 189 238 175 159 145 163 197 217 219 237 244 220 206 169 205 186 166 176 152 144
133 142 148 152 156 160 160 163 164 164 167 170 171 167 175 157 229 218 182 232 137 126 131 202 188 194 166 149 208 218 212 225 236 192 199 178 210 219 257 261 201 180 153
146 149 150 156 156 159 161 163 165 170 170 170 167 164 177 204 231 199 149 139 118 144 204 136 135 148 158 187 207 193 201 225 186 166 223 206 243 233 198 197 177 176 169
154 151 153 155 157 159 162 164 168 170 168 170 171 184 196 188 225 222 178 170 146 168 149 121 120 125 150 165 162 182 216 209 234 249 191 275 252 177 157 160 167 163 179
156 154 155 157 159 161 163 168 171 169 168 165 176 196 160 202 232 176 166 153 148 139 127 101 82 78 232 325 152 150 153 248 204 131 129 184 129 132 149 151 149 157 162
155 157 157 161 162 164 166 168 170 169 167 166 180 175 180 219 181 146 150 129 134 149 149 159 129 188 232 205 146 203 189 153 178 188 162 159 155 141 142 143 136 153 154
157 158 160 163 166 167 169 168 169 170 166 168 177 184 189 165 147 168 150 138 152 157 160 179 173 213 216 138 133 115 113 115 117 176 148 160 147 159 162 163 162 155 164
163 158 165 165 168 167 168 168 170 168 168 174 181 187 167 155 131 140 157 139 157 151 159 170 208 150 127 151 121 112 127 138 145 143 138 145 150 143 163 156 157 158 151
164 162 168 166 168 169 169 170 169 166 167 176 171 150 160 151 137 156 151 153 156 159 171 183 151 107 195 132 109 119 115 133 135 143 138 128 121 119 138 155 157 161 155
166 166 170 168 169 170 173 170 168 166 166 170 159 147 166 151 146 137 146 159 167 170 167 151 144 162 137 116 112 116 107 120 119 126 130 132 123 122 136 153 153 160 158
166 165 169 166 168 172 171 170 167 166 166 168 157 157 166 147 149 156 151 152 171 171 166 137 147 134 117 117 117 103 101 126 128 120 122 132 132 135 138 165 161 161 161
160 166 169 166 169 173 172 171 167 168 167 168 167 158 148 154 151 169 162 168 165 168 158 152 167 148 130 118 118 106 105 116 121 121 127 134 136 133 134 160 161 160 162
162 166 166 166 170 175 173 172 169 170 172 167 164 167 158 167 166 163 162 157 167 182 172 169 162 164 154 142 129 120 131 124 128 133 137 135 132 139 145 160 165 166 163
157 165 168 170 173 175 175 175 172 175 173 165 161 162 136 157 161 142 144 127 117 122 155 170 176 170 165 157 150 132 142 145 134 126 138 132 129 125 149 154 164 163 162
165 163 165 171 175 178 178 178 176 177 174 166 164 158 152 157 166 149 154 143 120 113 126 139 157 174 181 170 164 148 144 139 133 131 131 128 122 121 137 154 154 153 157
263 169 171 173 177 181 183 181 179 179 176 170 168 170 160 179 160 158 153 143 136 141 140 137 139 141 154 156 155 143 142 141 152 136 123 123 127 126 134 151 156 152 152
242 186 173 173 176 183 184 184 181 180 179 173 173 174 164 178 167 158 165 144 159 166 152 151 160 138 137 151 156 151 146 150 151 153 150 140 134 133 133 146 157 158 160
229 217 180 180 180 185 186 185 184 181 182 176 178 180 175 179 172 163 169 180 197 205 180 164 143 148 157 163 159 163 164 157 152 147 148 150 147 143 143 145 146 154 167
234 231 198 184 184 188 189 188 187 186 184 179 180 183 184 182 181 184 179 183 195 194 149 170 155 142 138 155 149 152 167 163 160 154 150 144 155 159 162 162 163 165 186
Wind_Speed_850mb
64 47 44 47 63 46 44 48 47 51 59 49 41 47 44 43 41 36 32 32 33 26 35 36 44 43 38 32 34 28 25 29 28 25 24 27 25 32 30 27 19 33 26
63 53 45 44 46 41 37 40 44 53 54 47 42 40 43 29 34 32 31 34 34 29 33 40 42 36 32 33 33 28 26 28 30 30 24 14 28 40 39 31 32 36 39
60 73 64 44 33 31 28 28 36 47 52 48 43 37 34 29 31 30 27 33 33 31 33 36 34 29 31 31 23 20 26 29 31 34 25 13 14 36 39 35 36 42 35
64 70 69 36 34 25 20 31 43 43 46 39 40 42 40 33 26 22 22 29 24 22 30 30 29 26 21 13 22 23 26 29 31 30 43 28 13 18 23 39 37 27 34
46 50 32 38 29 28 29 37 41 44 42 46 39 41 31 24 15 15 16 17 26 31 32 29 22 14 12 17 20 24 25 26 28 31 30 34 18 19 21 26 42 30 35
49 45 41 41 40 33 36 40 44 43 46 45 32 28 26 19 16 18 20 26 27 24 21 14 8 11 14 17 18 14 12 13 17 20 27 33 19 29 24 24 34 34 30
34 52 50 46 43 43 44 45 51 45 46 36 33 24 24 25 18 14 18 17 16 11 11 15 12 11 9 8 7 8 12 8 12 16 20 21 16 6 17 21 36 39 30
47 52 45 46 47 48 47 46 47 40 39 33 25 20 15 9 11 11 8 11 6 5 12 8 8 2 2 7 3 6 6 5 9 16 21 17 13 4 10 24 28 41 30
39 44 44 46 51 50 49 48 41 37 36 31 26 20 16 7 7 7 8 4 5 10 12 9 6 9 10 9 6 8 9 6 7 6 10 13 13 8 11 26 41 43 42
43 47 51 52 51 49 48 42 39 38 35 29 23 18 14 10 9 6 4 9 15 17 5 8 8 9 10 14 13 10 11 9 8 5 5 11 8 6 12 29 45 44 49
48 52 52 53 51 49 44 44 39 36 33 27 22 17 9 9 7 6 16 13 20 7 8 8 9 8 6 5 7 11 10 9 5 7 5 7 9 8 18 37 39 38 42
52 53 55 54 52 48 46 42 38 35 31 26 21 14 10 14 14 8 16 9 22 13 13 7 9 6 1 2 8 5 7 6 11 9 9 5 16 16 29 35 35 38 27
56 56 56 54 51 49 44 41 37 33 29 27 23 14 16 11 7 15 18 22 18 16 12 7 9 7 7 5 10 8 6 6 6 7 9 15 17 23 29 32 29 29 35
57 58 56 53 50 47 43 40 36 32 29 28 23 13 11 5 11 12 26 23 16 16 15 9 10 8 8 7 8 8 15 9 6 4 10 13 11 17 18 22 27 31 48
55 57 54 53 50 46 43 38 37 33 29 28 21 12 12 12 11 12 25 27 20 16 19 15 7 9 10 9 7 10 12 9 9 12 11 15 14 13 22 31 33 35 77
53 54 51 50 50 46 42 40 38 33 29 27 22 10 20 17 15 13 24 28 26 23 12 9 9 18 5 13 16 17 16 12 13 15 17 20 19 22 28 31 31 44 96
52 53 51 51 49 45 43 42 38 34 30 28 23 16 27 20 12 15 20 24 27 29 20 16 11 12 14 21 23 20 16 16 13 21 24 25 25 28 34 37 40 69 88
49 50 49 49 48 43 44 40 38 35 32 30 22 20 27 19 19 17 20 17 21 21 23 20 17 24 21 22 24 21 18 16 23 27 22 27 29 31 35 50 57 78 83
48 48 48 50 46 46 46 43 40 36 32 30 23 34 24 22 20 18 20 19 18 19 22 26 16 23 20 20 23 23 19 24 27 26 24 29 30 27 36 53 67 75 84
49 47 49 50 49 48 48 45 43 39 35 30 31 32 29 20 23 13 17 17 12 12 22 30 22 23 17 18 24 24 20 27 29 20 17 25 29 30 35 44 65 69 73
51 45 49 50 52 51 50 46 43 41 36 32 32 27 24 28 21 14 21 20 17 17 23 23 23 18 17 17 24 26 23 24 23 29 36 31 33 35 39 45 52 59 62
27 49 51 52 54 54 52 46 45 41 39 36 35 38 36 26 20 15 26 24 18 23 20 23 21 17 16 19 29 30 31 34 31 42 46 44 38 35 37 44 61 58 68
9 44 50 54 54 56 54 48 47 44 43 41 40 39 34 31 25 20 22 22 22 17 20 23 19 18 18 26 33 38 43 38 30 49 49 42 37 32 33 48 53 62 66
17 35 51 54 55 57 54 49 48 46 45 47 46 39 41 32 21 31 20 17 22 25 21 24 23 20 19 34 37 51 44 42 34 42 39 37 36 33 42 52 57 55 60
18 18 50 54 55 57 56 54 51 50 49 51 50 46 43 39 31 29 29 23 20 22 29 21 21 26 22 33 44 52 48 41 45 43 42 41 38 50 56 55 48 43 35
16 23 35 55 53 56 57 58 55 54 55 56 53 50 45 44 38 38 35 28 25 18 21 30 17 16 17 31 46 40 39 42 44 42 46 39 40 50 59 51 48 43 44
Wind_Direction_850mb
272 253 255 273 279 257 253 244 229 209 212 214 196 199 200 203 204 217 222 227 234 244 261 265 267 271 269 256 266 266 249 235 237 246 248 251 223 209 202 222 234 221 226
285 293 256 270 252 254 255 243 218 208 206 199 191 199 195 216 205 220 227 235 246 255 257 265 272 270 262 263 263 259 240 230 222 231 244 233 218 215 206 207 222 220 207
277 281 281 265 233 243 246 227 196 188 188 191 180 189 191 204 199 205 206 231 236 261 264 270 273 269 265 258 256 242 229 232 244 237 216 194 212 208 200 204 215 222 231
250 253 254 208 214 220 210 185 185 192 181 175 179 184 189 195 216 233 228 226 258 277 280 275 284 272 264 228 248 251 242 247 243 242 224 210 182 188 193 206 210 215 194
259 258 231 190 178 181 174 178 185 164 166 173 192 185 182 206 196 209 246 246 258 263 276 281 276 265 238 237 244 253 254 243 237 232 224 221 238 204 225 204 203 206 197
246 237 173 156 157 157 166 172 159 153 178 169 182 179 200 178 178 211 235 253 274 274 273 248 270 241 249 262 260 247 249 231 226 235 222 223 202 209 209 201 195 184 175
231 136 145 149 150 156 163 163 154 173 170 168 186 178 193 205 206 221 249 276 282 276 239 201 239 258 255 252 219 200 207 228 239 225 222 209 206 238 183 196 179 161 155
145 136 145 150 152 160 162 158 164 167 164 175 170 174 184 151 198 220 216 269 281 231 150 189 238 175 159 145 163 197 217 219 237 244 220 206 169 205 186 166 176 152 144
133 142 148 152 156 160 160 163 164 164 167 170 171 167 175 157 229 218 182 232 137 126 131 202 188 194 166 149 208 218 212 225 236 192 199 178 210 219 257 261 201 180 153
146 149 150 156 156 159 161 163 165 170 170 170 167 164 177 204 231 199 149 139 118 144 204 136 135 148 158 187 207 193 201 225 186 166 223 206 243 233 198 197 177 176 169
154 151 153 155 157 159 162 164 168 170 168 170 171 184 196 188 225 222 178 170 146 168 149 121 120 125 150 165 162 182 216 209 234 249 191 275 252 177 157 160 167 163 179
156 154 155 157 159 161 163 168 171 169 168 165 176 196 160 202 232 176 166 153 148 139 127 101 82 78 232 325 152 150 153 248 204 131 129 184 129 132 149 151 149 157 162
155 157 157 161 162 164 166 168 170 169 167 166 180 175 180 219 181 146 150 129 134 149 149 159 129 188 232 205 146 203 189 153 178 188 162 159 155 141 142 143 136 153 154
157 158 160 163 166 167 169 168 169 170 166 168 177 184 189 165 147 168 150 138 152 157 160 179 173 213 216 138 133 115 113 115 117 176 148 160 147 159 162 163 162 155 164
163 158 165 165 168 167 168 168 170 168 168 174 181 187 167 155 131 140 157 139 157 151 159 170 208 150 127 151 121 112 127 138 145 143 138 145 150 143 163 156 157 158 151
164 162 168 166 168 169 169 170 169 166 167 176 171 150 160 151 137 156 151 153 156 159 171 183 151 107 195 132 109 119 115 133 135 143 138 128 121 119 138 155 157 161 155
166 166 170 168 169 170 173 170 168 166 166 170 159 147 166 151 146 137 146 159 167 170 167 151 144 162 137 116 112 116 107 120 119 126 130 132 123 122 136 153 153 160 158
166 165 169 166 168 172 171 170 167 166 166 168 157 157 166 147 149 156 151 152 171 171 166 137 147 134 117 117 117 103 101 126 128 120 122 132 132 135 138 165 161 161 161
160 166 169 166 169 173 172 171 167 168 167 168 167 158 148 154 151 169 162 168 165 168 158 152 167 148 130 118 118 106 105 116 121 121 127 134 136 133 134 160 161 160 162
162 166 166 166 170 175 173 172 169 170 172 167 164 167 158 167 166 163 162 157 167 182 172 169 162 164 154 142 129 120 131 124 128 133 137 135 132 139 145 160 165 166 163
157 165 168 170 173 175 175 175 172 175 173 165 161 162 136 157 161 142 144 127 117 122 155 170 176 170 165 157 150 132 142 145 134 126 138 132 129 125 149 154 164 163 162
165 163 165 171 175 178 178 178 176 177 174 166 164 158 152 157 166 149 154 143 120 113 126 139 157 174 181 170 164 148 144 139 133 131 131 128 122 121 137 154 154 153 157
263 169 171 173 177 181 183 181 179 179 176 170 168 170 160 179 160 158 153 143 136 141 140 137 139 141 154 156 155 143 142 141 152 136 123 123 127 126 134 151 156 152 152
242 186 173 173 176 183 184 184 181 180 179 173 173 174 164 178 167 158 165 144 159 166 152 151 160 138 137 151 156 151 146 150 151 153 150 140 134 133 133 146 157 158 160
229 217 180 180 180 185 186 185 184 181 182 176 178 180 175 179 172 163 169 180 197 205 180 164 143 148 157 163 159 163 164 157 152 147 148 150 147 143 143 145 146 154 167
234 231 198 184 184 188 189 188 187 186 184 179 180 183 184 182 181 184 179 183 195 194 149 170 155 142 138 155 149 152 167 163 160 154 150 144 155 159 162 162 163 165 186